| time (UTC) | temp F | wind direction | speed MPH | gust MPH | rain 1hr in | rain 24hr in | rain mn in | humidity % | barometer mb |
| 20260903085006 | 71 | 181 | 1.0 | 3.0 | 0.31 | 0.76 | 0.65 | 98 | 1018.9 |
| 20260903084504 | 71 | 305 | 1.0 | 2.0 | 0.29 | 0.74 | 0.63 | 98 | 1019.7 |
| 20260903084006 | 71 | 305 | 1.0 | 4.0 | 0.23 | 0.68 | 0.57 | 98 | 1019.7 |
| 20260903083506 | 71 | 305 | 1.0 | 4.0 | 0.15 | 0.60 | 0.49 | 98 | 1019.9 |
| 20260903083007 | 71 | 306 | 2.0 | 6.0 | 0.08 | 0.53 | 0.42 | 98 | 1020.0 |
| 20260903082504 | 71 | 305 | 2.0 | 6.0 | 0.00 | 0.45 | 0.34 | 98 | 1020.0 |
| 20260903081010 | 71 | 182 | 0.0 | 0.0 | 0.00 | 0.45 | 0.34 | 98 | 1018.0 |
| 20260903080505 | 71 | 182 | 0.0 | 0.0 | 0.00 | 0.45 | 0.34 | 98 | 1017.9 |
| 20260903075504 | 71 | 182 | 0.0 | 3.0 | 0.00 | 0.45 | 0.34 | 98 | 1018.0 |
| 20260903075005 | 71 | 182 | 1.0 | 3.0 | 0.00 | 0.45 | 0.34 | 98 | 1018.1 |
| 20260903074506 | 71 | 182 | 0.0 | 0.0 | 0.00 | 0.45 | 0.34 | 98 | 1018.4 |
| 20260903074006 | 71 | 182 | 0.0 | 0.0 | 0.00 | 0.45 | 0.34 | 98 | 1018.3 |
| 20260903073504 | 71 | 182 | 0.0 | 0.0 | 0.00 | 0.45 | 0.34 | 98 | 1018.1 |
| 20260903073007 | 71 | 182 | 0.0 | 0.0 | 0.00 | 0.45 | 0.34 | 98 | 1018.1 |
| 20260903072010 | 71 | 182 | 0.0 | 0.0 | 0.00 | 0.45 | 0.34 | 98 | 1018.2 |
| 20260903071504 | 71 | 182 | 0.0 | 0.0 | 0.01 | 0.45 | 0.34 | 98 | 1018.1 |
| 20260903071004 | 71 | 182 | 0.0 | 0.0 | 0.02 | 0.45 | 0.34 | 98 | 1018.3 |
| 20260903070504 | 71 | 182 | 0.0 | 2.0 | 0.04 | 0.45 | 0.34 | 98 | 1018.3 |
| 20260903070006 | 71 | 182 | 0.0 | 1.0 | 0.15 | 0.45 | 0.34 | 98 | 1018.4 |
| 20260903065503 | 71 | 182 | 0.0 | 1.0 | 0.21 | 0.45 | 0.34 | 98 | 1018.4 |
| 20260903065008 | 71 | 182 | 0.0 | 1.0 | 0.22 | 0.45 | 0.34 | 98 | 1018.6 |
| 20260903064503 | 71 | 182 | 0.0 | 0.0 | 0.25 | 0.45 | 0.34 | 98 | 1018.5 |
| 20260903064005 | 71 | 182 | 0.0 | 2.0 | 0.31 | 0.45 | 0.34 | 98 | 1018.5 |
| 20260903063504 | 71 | 182 | 0.0 | 2.0 | 0.34 | 0.45 | 0.34 | 98 | 1018.4 |
| 20260903062503 | 71 | 182 | 0.0 | 2.0 | 0.34 | 0.45 | 0.34 | 98 | 1018.5 |
| 20260903062007 | 71 | 182 | 0.0 | 2.0 | 0.34 | 0.45 | 0.34 | 98 | 1018.4 |
| 20260903061503 | 71 | 182 | 1.0 | 2.0 | 0.33 | 0.44 | 0.33 | 98 | 1018.7 |
| 20260903061004 | 71 | 182 | 0.0 | 2.0 | 0.32 | 0.43 | 0.32 | 98 | 1018.8 |
| 20260903055503 | 71 | 293 | 0.0 | 0.0 | 0.13 | 0.24 | 0.13 | 98 | 1020.1 |
| 20260903055005 | 71 | 293 | 0.0 | 2.0 | 0.12 | 0.23 | 0.12 | 98 | 1020.2 |
| 20260903054004 | 71 | 293 | 2.0 | 5.0 | 0.03 | 0.14 | 0.03 | 98 | 1020.1 |
| 20260903053505 | 71 | 267 | 2.0 | 3.0 | 0.00 | 0.11 | 0.00 | 98 | 1019.5 |
| 20260903053006 | 71 | 292 | 0.0 | 2.0 | 0.00 | 0.11 | 0.00 | 98 | 1019.1 |
| 20260903052503 | 71 | 165 | 0.0 | 1.0 | 0.00 | 0.11 | 0.00 | 98 | 1018.8 |
| 20260903052005 | 71 | 165 | 0.0 | 1.0 | 0.00 | 0.11 | 0.00 | 98 | 1018.7 |
| 20260903051503 | 71 | 165 | 0.0 | 0.0 | 0.00 | 0.11 | 0.00 | 98 | 1018.6 |
| 20260903051004 | 71 | 165 | 0.0 | 1.0 | 0.00 | 0.11 | 0.00 | 98 | 1018.5 |
| 20260903050503 | 71 | 165 | 0.0 | 1.0 | 0.00 | 0.11 | 0.00 | 98 | 1018.7 |
| 20260903050006 | 71 | 165 | 0.0 | 1.0 | 0.00 | 0.11 | 0.00 | 98 | 1018.8 |
| 20260903045503 | 71 | 165 | 0.0 | 1.0 | 0.00 | 0.11 | 0.00 | 98 | 1018.7 |
| 20260903045004 | 71 | 165 | 0.0 | 1.0 | 0.00 | 0.11 | 0.00 | 98 | 1018.8 |
| 20260903044504 | 71 | 165 | 0.0 | 0.0 | 0.00 | 0.11 | 0.00 | 98 | 1018.7 |
| 20260903044004 | 71 | 165 | 0.0 | 0.0 | 0.00 | 0.11 | 0.00 | 98 | 1018.7 |
| 20260903043503 | 72 | 165 | 0.0 | 1.0 | 0.00 | 0.11 | 0.00 | 98 | 1018.7 |
| 20260903043007 | 72 | 165 | 0.0 | 1.0 | 0.00 | 0.11 | 0.00 | 98 | 1018.9 |
| 20260903042503 | 72 | 165 | 0.0 | 0.0 | 0.00 | 0.11 | 0.00 | 98 | 1018.9 |
| 20260903042003 | 72 | 165 | 0.0 | 5.0 | 0.00 | 0.11 | 0.00 | 98 | 1018.9 |
| 20260903041508 | 72 | 165 | 1.0 | 5.0 | 0.00 | 0.11 | 0.00 | 98 | 1018.9 |
| 20260903040505 | 72 | 177 | 0.0 | 0.0 | 0.00 | 0.11 | 0.00 | 98 | 1019.2 |
| 20260903040010 | 72 | 177 | 0.0 | 0.0 | 0.00 | 0.11 | 0.00 | 98 | 1019.2 |
| 20260903035505 | 72 | 177 | 0.0 | 0.0 | 0.00 | 0.11 | 0.11 | 98 | 1019.3 |
| 20260903034507 | 72 | 177 | 0.0 | 0.0 | 0.00 | 0.11 | 0.11 | 98 | 1019.4 |
| 20260903034006 | 72 | 177 | 0.0 | 0.0 | 0.00 | 0.11 | 0.11 | 98 | 1019.5 |
| 20260903033505 | 72 | 177 | 0.0 | 0.0 | 0.00 | 0.11 | 0.11 | 98 | 1019.3 |
| 20260903032505 | 72 | 177 | 0.0 | 3.0 | 0.00 | 0.11 | 0.11 | 98 | 1019.1 |
| 20260903032007 | 72 | 177 | 1.0 | 2.0 | 0.00 | 0.11 | 0.11 | 98 | 1019.2 |
| 20260903031008 | 72 | 177 | 1.0 | 2.0 | 0.00 | 0.11 | 0.11 | 98 | 1019.2 |
| 20260903030009 | 72 | 177 | 2.0 | 6.0 | 0.00 | 0.11 | 0.11 | 98 | 1019.1 |
| 20260903025505 | 72 | 189 | 0.0 | 3.0 | 0.00 | 0.12 | 0.11 | 98 | 1019.4 |
| 20260903025007 | 72 | 180 | 0.0 | 4.0 | 0.00 | 0.12 | 0.11 | 98 | 1019.4 |
| 20260903024507 | 72 | 180 | 1.0 | 4.0 | 0.00 | 0.12 | 0.11 | 98 | 1019.3 |
| 20260903023505 | 72 | 173 | 0.0 | 2.0 | 0.00 | 0.12 | 0.11 | 98 | 1019.5 |
| 20260903023007 | 72 | 173 | 0.0 | 2.0 | 0.00 | 0.12 | 0.11 | 98 | 1019.3 |
| 20260903022505 | 72 | 173 | 0.0 | 5.0 | 0.00 | 0.12 | 0.11 | 98 | 1019.5 |
| 20260903022006 | 72 | 186 | 1.0 | 7.0 | 0.00 | 0.12 | 0.11 | 98 | 1019.4 |
| 20260903021506 | 72 | 171 | 0.0 | 7.0 | 0.00 | 0.12 | 0.11 | 98 | 1019.2 |
| 20260903020506 | 72 | 177 | 1.0 | 5.0 | 0.00 | 0.12 | 0.11 | 98 | 1018.9 |
| 20260903020008 | 72 | 174 | 0.0 | 5.0 | 0.00 | 0.12 | 0.11 | 98 | 1018.9 |
| 20260903015006 | 72 | 162 | 1.0 | 3.0 | 0.00 | 0.12 | 0.11 | 98 | 1018.8 |
| 20260903014507 | 72 | 166 | 0.0 | 3.0 | 0.00 | 0.12 | 0.11 | 98 | 1019.0 |
| 20260903014005 | 72 | 166 | 0.0 | 3.0 | 0.00 | 0.12 | 0.11 | 98 | 1019.1 |
| 20260903013505 | 72 | 166 | 1.0 | 3.0 | 0.00 | 0.12 | 0.11 | 98 | 1019.1 |
| 20260903013009 | 72 | 198 | 1.0 | 2.0 | 0.00 | 0.12 | 0.11 | 98 | 1019.0 |
| 20260903012505 | 72 | 198 | 0.0 | 2.0 | 0.00 | 0.12 | 0.11 | 98 | 1019.1 |
| 20260903011507 | 72 | 198 | 0.0 | 1.0 | 0.00 | 0.12 | 0.11 | 98 | 1019.1 |
| 20260903011005 | 72 | 198 | 0.0 | 1.0 | 0.00 | 0.12 | 0.11 | 98 | 1019.3 |
| 20260903010505 | 72 | 198 | 0.0 | 0.0 | 0.00 | 0.12 | 0.11 | 98 | 1019.3 |
| 20260903010012 | 72 | 198 | 0.0 | 0.0 | 0.00 | 0.12 | 0.11 | 98 | 1019.5 |
| 20260903005009 | 72 | 198 | 0.0 | 1.0 | 0.00 | 0.52 | 0.11 | 98 | 1019.3 |
| 20260903004505 | 72 | 198 | 0.0 | 0.0 | 0.00 | 0.52 | 0.11 | 98 | 1019.2 |
| 20260903004006 | 72 | 198 | 0.0 | 2.0 | 0.00 | 0.52 | 0.11 | 98 | 1019.3 |
| 20260903003508 | 72 | 198 | 0.0 | 2.0 | 0.00 | 0.52 | 0.11 | 98 | 1019.1 |
| 20260903003011 | 72 | 198 | 0.0 | 4.0 | 0.00 | 0.52 | 0.11 | 98 | 1019.1 |
| 20260903002505 | 72 | 198 | 1.0 | 4.0 | 0.00 | 0.52 | 0.11 | 98 | 1019.1 |
| 20260903002007 | 72 | 199 | 0.0 | 2.0 | 0.00 | 0.52 | 0.11 | 98 | 1019.1 |
| 20260903001505 | 72 | 199 | 0.0 | 2.0 | 0.00 | 0.52 | 0.11 | 98 | 1019.1 |
| 20260903001007 | 72 | 199 | 0.0 | 1.0 | 0.00 | 0.52 | 0.11 | 98 | 1019.1 |
| 20260903000505 | 72 | 199 | 0.0 | 1.0 | 0.00 | 0.52 | 0.11 | 98 | 1019.0 |
| 20260902235005 | 73 | 199 | 0.0 | 0.0 | 0.00 | 0.52 | 0.11 | 98 | 1018.8 |
| 20260902234506 | 73 | 199 | 0.0 | 0.0 | 0.00 | 0.52 | 0.11 | 98 | 1018.8 |
| 20260902234005 | 73 | 199 | 0.0 | 0.0 | 0.00 | 0.52 | 0.11 | 98 | 1018.8 |
| 20260902233504 | 73 | 199 | 0.0 | 0.0 | 0.00 | 0.52 | 0.11 | 98 | 1018.9 |
| 20260902233006 | 73 | 199 | 0.0 | 0.0 | 0.00 | 0.52 | 0.11 | 98 | 1018.9 |
| 20260902232504 | 73 | 199 | 0.0 | 1.0 | 0.00 | 0.52 | 0.11 | 98 | 1018.9 |
| 20260902231505 | 73 | 199 | 0.0 | 1.0 | 0.00 | 0.52 | 0.11 | 98 | 1019.0 |
| 20260902231005 | 73 | 199 | 0.0 | 1.0 | 0.00 | 0.52 | 0.11 | 98 | 1019.1 |
| 20260902230504 | 73 | 199 | 0.0 | 0.0 | 0.00 | 0.52 | 0.11 | 98 | 1019.0 |
| 20260902230007 | 73 | 199 | 0.0 | 0.0 | 0.00 | 0.52 | 0.11 | 98 | 1018.9 |
| 20260902225504 | 73 | 199 | 0.0 | 2.0 | 0.00 | 0.52 | 0.11 | 98 | 1018.9 |
| 20260902225006 | 73 | 199 | 0.0 | 2.0 | 0.00 | 0.52 | 0.11 | 98 | 1018.9 |
| 20260902224506 | 73 | 199 | 0.0 | 2.0 | 0.00 | 0.52 | 0.11 | 98 | 1019.0 |
| 20260902224005 | 73 | 235 | 0.0 | 1.0 | 0.00 | 0.52 | 0.11 | 98 | 1019.1 |
| 20260902223504 | 73 | 235 | 0.0 | 1.0 | 0.00 | 0.52 | 0.11 | 98 | 1019.2 |
| 20260902223012 | 73 | 235 | 0.0 | 1.0 | 0.00 | 0.52 | 0.11 | 98 | 1019.3 |
| 20260902222504 | 73 | 235 | 0.0 | 0.0 | 0.00 | 0.52 | 0.11 | 98 | 1019.4 |
| 20260902222005 | 73 | 235 | 0.0 | 1.0 | 0.00 | 0.52 | 0.11 | 98 | 1019.5 |
| 20260902221506 | 73 | 235 | 0.0 | 1.0 | 0.00 | 0.52 | 0.11 | 98 | 1019.6 |
| 20260902221005 | 73 | 242 | 0.0 | 1.0 | 0.00 | 0.52 | 0.11 | 98 | 1019.6 |
| 20260902220504 | 73 | 242 | 0.0 | 0.0 | 0.00 | 0.52 | 0.11 | 98 | 1019.5 |
| 20260902220009 | 73 | 242 | 0.0 | 2.0 | 0.00 | 0.52 | 0.11 | 98 | 1019.5 |
| 20260902215504 | 73 | 242 | 0.0 | 2.0 | 0.00 | 0.52 | 0.11 | 98 | 1019.6 |
| 20260902214505 | 73 | 211 | 0.0 | 2.0 | 0.00 | 0.52 | 0.11 | 98 | 1019.5 |
| 20260902213505 | 73 | 215 | 2.0 | 6.0 | 0.00 | 0.52 | 0.11 | 98 | 1019.2 |
| 20260902212505 | 73 | 172 | 0.0 | 2.0 | 0.00 | 0.52 | 0.11 | 98 | 1019.2 |
| 20260902212006 | 73 | 170 | 0.0 | 4.0 | 0.00 | 0.52 | 0.11 | 98 | 1019.1 |
| 20260902211007 | 74 | 162 | 1.0 | 4.0 | 0.00 | 0.52 | 0.11 | 98 | 1019.0 |
| 20260902210505 | 74 | 186 | 2.0 | 4.0 | 0.00 | 0.52 | 0.11 | 98 | 1019.0 |
| 20260902210007 | 74 | 185 | 0.0 | 2.0 | 0.00 | 0.52 | 0.11 | 98 | 1019.2 |
| 20260902205506 | 74 | 186 | 1.0 | 2.0 | 0.00 | 0.52 | 0.11 | 98 | 1019.3 |
| 20260902205006 | 73 | 186 | 1.0 | 2.0 | 0.00 | 0.52 | 0.11 | 98 | 1019.2 |
| 20260902204505 | 73 | 184 | 0.0 | 2.0 | 0.00 | 0.52 | 0.11 | 97 | 1019.4 |
| 20260902204008 | 73 | 185 | 0.0 | 2.0 | 0.00 | 0.52 | 0.11 | 98 | 1019.4 |
| 20260902203504 | 73 | 184 | 0.0 | 3.0 | 0.00 | 0.52 | 0.11 | 97 | 1019.3 |
| 20260902203006 | 74 | 185 | 0.0 | 1.0 | 0.00 | 0.52 | 0.11 | 98 | 1019.4 |
| 20260902202504 | 74 | 185 | 0.0 | 0.0 | 0.00 | 0.52 | 0.11 | 98 | 1019.3 |
| 20260902202007 | 74 | 185 | 0.0 | 1.0 | 0.00 | 0.52 | 0.11 | 97 | 1019.2 |
| 20260902201504 | 74 | 185 | 0.0 | 2.0 | 0.00 | 0.52 | 0.11 | 97 | 1019.2 |
| 20260902201007 | 74 | 185 | 0.0 | 4.0 | 0.00 | 0.52 | 0.11 | 97 | 1019.2 |
| 20260902200504 | 74 | 185 | 1.0 | 4.0 | 0.00 | 0.52 | 0.11 | 97 | 1019.1 |
| 20260902195505 | 74 | 173 | 1.0 | 3.0 | 0.00 | 0.52 | 0.11 | 97 | 1019.2 |
| 20260902195005 | 74 | 192 | 1.0 | 3.0 | 0.00 | 0.52 | 0.11 | 97 | 1019.2 |
| 20260902194504 | 74 | 184 | 0.0 | 3.0 | 0.00 | 0.52 | 0.11 | 97 | 1019.4 |
| 20260902194006 | 74 | 213 | 1.0 | 3.0 | 0.00 | 0.52 | 0.11 | 97 | 1019.4 |
| 20260902193506 | 74 | 202 | 0.0 | 3.0 | 0.00 | 0.52 | 0.11 | 97 | 1019.3 |
| 20260902193005 | 74 | 238 | 0.0 | 0.0 | 0.01 | 0.52 | 0.11 | 97 | 1019.2 |
| 20260902192506 | 74 | 238 | 0.0 | 0.0 | 0.01 | 0.52 | 0.11 | 97 | 1019.3 |
| 20260902192005 | 73 | 238 | 0.0 | 2.0 | 0.01 | 0.52 | 0.11 | 97 | 1019.3 |
| 20260902191504 | 73 | 238 | 1.0 | 2.0 | 0.02 | 0.52 | 0.11 | 97 | 1019.4 |
| 20260902191007 | 73 | 239 | 0.0 | 2.0 | 0.02 | 0.52 | 0.11 | 96 | 1019.6 |
| 20260902190505 | 73 | 239 | 0.0 | 0.0 | 0.03 | 0.52 | 0.11 | 96 | 1019.7 |
| 20260902190005 | 73 | 239 | 0.0 | 0.0 | 0.03 | 0.52 | 0.11 | 96 | 1019.7 |
| 20260902185505 | 73 | 239 | 0.0 | 0.0 | 0.05 | 0.52 | 0.11 | 96 | 1019.7 |
| 20260902185005 | 73 | 239 | 0.0 | 0.0 | 0.06 | 0.52 | 0.11 | 96 | 1019.8 |
| 20260902184504 | 73 | 239 | 0.0 | 0.0 | 0.07 | 0.52 | 0.11 | 96 | 1019.8 |
| 20260902184005 | 73 | 239 | 0.0 | 0.0 | 0.08 | 0.52 | 0.11 | 96 | 1019.8 |
| 20260902183504 | 73 | 239 | 0.0 | 0.0 | 0.10 | 0.52 | 0.11 | 96 | 1019.9 |
| 20260902183005 | 73 | 239 | 0.0 | 0.0 | 0.10 | 0.51 | 0.10 | 96 | 1020.1 |
| 20260902182504 | 73 | 239 | 0.0 | 0.0 | 0.10 | 0.51 | 0.10 | 96 | 1020.3 |
| 20260902182006 | 73 | 239 | 0.0 | 0.0 | 0.10 | 0.51 | 0.10 | 96 | 1020.3 |
| 20260902181504 | 73 | 239 | 0.0 | 0.0 | 0.09 | 0.50 | 0.09 | 95 | 1020.1 |
| 20260902181004 | 73 | 239 | 0.0 | 1.0 | 0.09 | 0.50 | 0.09 | 96 | 1020.0 |
| 20260902180505 | 73 | 239 | 0.0 | 1.0 | 0.08 | 0.49 | 0.08 | 96 | 1020.1 |
| 20260902180007 | 73 | 239 | 0.0 | 0.0 | 0.08 | 0.49 | 0.08 | 96 | 1020.4 |
| 20260902175007 | 73 | 239 | 0.0 | 0.0 | 0.05 | 0.46 | 0.05 | 95 | 1020.3 |
| 20260902174507 | 73 | 239 | 0.0 | 0.0 | 0.04 | 0.45 | 0.04 | 95 | 1020.7 |
| 20260902173510 | 73 | 239 | 0.0 | 0.0 | 0.01 | 0.42 | 0.01 | 95 | 1021.1 |
| 20260902172504 | 73 | 238 | 0.0 | 0.0 | 0.00 | 0.41 | 0.00 | 95 | 1021.3 |
| 20260902172006 | 73 | 238 | 0.0 | 0.0 | 0.00 | 0.41 | 0.00 | 95 | 1021.3 |
| 20260902171504 | 73 | 238 | 0.0 | 0.0 | 0.00 | 0.41 | 0.00 | 95 | 1021.1 |
| 20260902171004 | 74 | 238 | 0.0 | 2.0 | 0.00 | 0.41 | 0.00 | 95 | 1021.1 |
| 20260902170505 | 74 | 238 | 0.0 | 2.0 | 0.00 | 0.41 | 0.00 | 94 | 1021.2 |
| 20260902170005 | 74 | 238 | 0.0 | 2.0 | 0.00 | 0.41 | 0.00 | 94 | 1021.2 |
| 20260902165504 | 74 | 239 | 0.0 | 2.0 | 0.00 | 0.41 | 0.00 | 94 | 1021.2 |
| 20260902165006 | 74 | 239 | 1.0 | 1.0 | 0.00 | 0.41 | 0.00 | 95 | 1021.1 |
| 20260902163505 | 73 | 117 | 0.0 | 2.0 | 0.00 | 0.41 | 0.00 | 96 | 1020.9 |
| 20260902163005 | 73 | 334 | 0.0 | 2.0 | 0.00 | 0.41 | 0.00 | 96 | 1020.9 |
| 20260902162504 | 73 | 198 | 0.0 | 0.0 | 0.00 | 0.41 | 0.00 | 96 | 1021.0 |
| 20260902162006 | 73 | 212 | 0.0 | 0.0 | 0.00 | 0.41 | 0.00 | 96 | 1020.9 |
| 20260902160008 | 73 | 182 | 0.0 | 4.0 | 0.00 | 0.41 | 0.00 | 96 | 1020.9 |
| 20260902155504 | 73 | 182 | 1.0 | 4.0 | 0.00 | 0.41 | 0.00 | 96 | 1020.8 |
| 20260902155006 | 73 | 53 | 0.0 | 3.0 | 0.00 | 0.41 | 0.00 | 96 | 1020.7 |
| 20260902154006 | 72 | 220 | 0.0 | 3.0 | 0.00 | 0.41 | 0.00 | 97 | 1020.7 |
| 20260902153504 | 72 | 220 | 1.0 | 3.0 | 0.00 | 0.41 | 0.00 | 96 | 1020.7 |
| 20260902153006 | 72 | 218 | 0.0 | 1.0 | 0.00 | 0.41 | 0.00 | 97 | 1020.7 |
| 20260902152504 | 72 | 218 | 0.0 | 1.0 | 0.00 | 0.41 | 0.00 | 97 | 1020.8 |
| 20260902151504 | 72 | 218 | 0.0 | 2.0 | 0.00 | 0.41 | 0.00 | 96 | 1021.0 |
| 20260902150507 | 72 | 218 | 1.0 | 2.0 | 0.00 | 0.41 | 0.00 | 97 | 1021.0 |
| 20260902150010 | 72 | 218 | 0.0 | 2.0 | 0.00 | 0.41 | 0.00 | 97 | 1021.1 |
| 20260902145006 | 72 | 169 | 1.0 | 3.0 | 0.00 | 0.41 | 0.00 | 98 | 1021.2 |
| 20260902144504 | 71 | 169 | 1.0 | 4.0 | 0.00 | 0.41 | 0.00 | 98 | 1021.2 |
| 20260902144008 | 71 | 187 | 1.0 | 6.0 | 0.00 | 0.41 | 0.00 | 97 | 1021.1 |
| 20260902143006 | 71 | 54 | 0.0 | 4.0 | 0.00 | 0.41 | 0.00 | 98 | 1020.9 |
| 20260902142506 | 71 | 177 | 0.0 | 5.0 | 0.00 | 0.41 | 0.00 | 98 | 1020.7 |
| 20260902142006 | 71 | 182 | 1.0 | 5.0 | 0.00 | 0.41 | 0.00 | 98 | 1020.5 |
| 20260902141007 | 71 | 324 | 0.0 | 5.0 | 0.00 | 0.41 | 0.00 | 99 | 1020.7 |
| 20260902140504 | 71 | 179 | 1.0 | 5.0 | 0.00 | 0.41 | 0.00 | 99 | 1020.7 |
| 20260902140009 | 71 | 182 | 1.0 | 3.0 | 0.00 | 0.41 | 0.00 | 99 | 1020.7 |
| 20260902135504 | 71 | 236 | 1.0 | 3.0 | 0.00 | 0.41 | 0.00 | 99 | 1020.7 |
| 20260902135009 | 71 | 234 | 0.0 | 4.0 | 0.00 | 0.41 | 0.00 | 99 | 1020.8 |
| 20260902134505 | 71 | 51 | 0.0 | 4.0 | 0.00 | 0.41 | 0.00 | 98 | 1020.7 |
| 20260902134006 | 71 | 187 | 1.0 | 3.0 | 0.00 | 0.41 | 0.00 | 98 | 1020.8 |
| 20260902133007 | 71 | 92 | 0.0 | 3.0 | 0.00 | 0.41 | 0.00 | 98 | 1020.6 |
| 20260902132504 | 71 | 187 | 1.0 | 3.0 | 0.00 | 0.41 | 0.00 | 99 | 1020.4 |
| 20260902132006 | 71 | 200 | 1.0 | 3.0 | 0.00 | 0.41 | 0.00 | 99 | 1020.4 |
| 20260902131505 | 71 | 198 | 0.0 | 5.0 | 0.00 | 0.41 | 0.00 | 99 | 1020.4 |
| 20260902131007 | 71 | 174 | 2.0 | 5.0 | 0.00 | 0.41 | 0.00 | 98 | 1020.5 |
| 20260902130503 | 71 | 200 | 1.0 | 4.0 | 0.00 | 0.41 | 0.00 | 98 | 1020.5 |
| 20260902130009 | 71 | 176 | 2.0 | 4.0 | 0.00 | 0.41 | 0.00 | 98 | 1020.4 |
| 20260902125504 | 71 | 190 | 1.0 | 2.0 | 0.00 | 0.41 | 0.00 | 98 | 1020.4 |
| 20260902125005 | 71 | 176 | 0.0 | 4.0 | 0.00 | 0.41 | 0.00 | 98 | 1020.3 |
| 20260902124505 | 71 | 176 | 1.0 | 4.0 | 0.00 | 0.41 | 0.00 | 98 | 1020.3 |
| 20260902123507 | 71 | 169 | 1.0 | 5.0 | 0.00 | 0.41 | 0.00 | 98 | 1020.4 |
| 20260902123007 | 71 | 157 | 0.0 | 3.0 | 0.00 | 0.41 | 0.00 | 98 | 1020.3 |
| 20260902122504 | 70 | 156 | 1.0 | 3.0 | 0.00 | 0.41 | 0.00 | 98 | 1020.2 |
| 20260902122006 | 70 | 186 | 0.0 | 5.0 | 0.00 | 0.41 | 0.00 | 98 | 1020.0 |
| 20260902121505 | 70 | 174 | 1.0 | 5.0 | 0.00 | 0.41 | 0.00 | 98 | 1019.9 |
| 20260902120007 | 70 | 193 | 0.0 | 3.0 | 0.00 | 0.41 | 0.00 | 98 | 1019.9 |
| 20260902115503 | 70 | 222 | 0.0 | 4.0 | 0.00 | 0.41 | 0.00 | 98 | 1019.8 |
| 20260902114503 | 70 | 184 | 1.0 | 3.0 | 0.00 | 0.41 | 0.00 | 98 | 1019.7 |
| 20260902114005 | 70 | 201 | 0.0 | 2.0 | 0.00 | 0.41 | 0.00 | 98 | 1020.0 |
| 20260902113504 | 70 | 201 | 0.0 | 2.0 | 0.00 | 0.41 | 0.00 | 98 | 1020.1 |
| 20260902113005 | 70 | 201 | 0.0 | 3.0 | 0.00 | 0.41 | 0.00 | 98 | 1020.2 |
| 20260902112503 | 70 | 204 | 1.0 | 2.0 | 0.00 | 0.41 | 0.00 | 98 | 1020.1 |
| 20260902112005 | 70 | 204 | 0.0 | 1.0 | 0.00 | 0.41 | 0.00 | 98 | 1020.0 |
| 20260902111503 | 70 | 204 | 0.0 | 1.0 | 0.00 | 0.41 | 0.00 | 98 | 1020.0 |
| 20260902110504 | 70 | 204 | 0.0 | 2.0 | 0.00 | 0.41 | 0.00 | 98 | 1020.0 |
| 20260902110007 | 70 | 204 | 0.0 | 1.0 | 0.00 | 0.41 | 0.00 | 98 | 1019.8 |
| 20260902105006 | 70 | 203 | 0.0 | 1.0 | 0.00 | 0.41 | 0.00 | 98 | 1019.8 |
| 20260902104504 | 70 | 203 | 0.0 | 1.0 | 0.00 | 0.41 | 0.00 | 98 | 1019.8 |
| 20260902104004 | 70 | 203 | 0.0 | 2.0 | 0.00 | 0.41 | 0.00 | 98 | 1019.7 |
| 20260902103505 | 70 | 203 | 0.0 | 3.0 | 0.00 | 0.41 | 0.00 | 98 | 1019.8 |
| 20260902103005 | 71 | 214 | 1.0 | 2.0 | 0.00 | 0.41 | 0.00 | 98 | 1019.9 |
| 20260902101504 | 71 | 188 | 0.0 | 3.0 | 0.00 | 0.41 | 0.00 | 98 | 1019.7 |
| 20260902101004 | 71 | 188 | 1.0 | 3.0 | 0.00 | 0.41 | 0.00 | 98 | 1019.7 |
| 20260902100505 | 71 | 178 | 0.0 | 2.0 | 0.00 | 0.41 | 0.00 | 98 | 1019.7 |
| 20260902100006 | 71 | 178 | 1.0 | 2.0 | 0.00 | 0.41 | 0.00 | 98 | 1019.7 |
| 20260902095503 | 71 | 53 | 0.0 | 2.0 | 0.00 | 0.41 | 0.00 | 98 | 1019.6 |
| 20260902094503 | 71 | 227 | 0.0 | 2.0 | 0.00 | 0.41 | 0.00 | 98 | 1019.6 |
| 20260902093503 | 71 | 227 | 0.0 | 2.0 | 0.00 | 0.41 | 0.00 | 98 | 1019.5 |
| 20260902092504 | 71 | 227 | 0.0 | 2.0 | 0.00 | 0.41 | 0.00 | 98 | 1019.4 |
| 20260902092005 | 71 | 138 | 0.0 | 1.0 | 0.00 | 0.41 | 0.00 | 98 | 1019.4 |
| 20260902091506 | 72 | 49 | 0.0 | 1.0 | 0.00 | 0.41 | 0.00 | 98 | 1019.3 |
| 20260902091005 | 72 | 172 | 0.0 | 1.0 | 0.00 | 0.41 | 0.00 | 98 | 1019.2 |
| 20260902090503 | 72 | 172 | 0.0 | 1.0 | 0.00 | 0.41 | 0.00 | 98 | 1019.1 |
| 20260902090005 | 72 | 172 | 0.0 | 1.0 | 0.00 | 0.41 | 0.00 | 98 | 1019.1 |
| 20260902085504 | 72 | 172 | 0.0 | 1.0 | 0.00 | 0.41 | 0.00 | 98 | 1019.1 |